Weather in Terehovka

Belarus     52°13′00″N   31°25′23″E
В апреле 2022 года жителям России запретили посещать сайт meteo.paraplan.net по решению Генеральной прокуратуры. Аудитория сайта уменьшилась в 10 раз. Владельцы сайта не видят смысла в поддержке погодного сервера в таких условиях. Сайт будет закрыт в октябре.
temp.,
°C
wind,
m/s
gust,
m/s
humid.,
%
clouds,
%
prec.,
mm/h
press.,
hPa
HPBL,
m
4 october, tue
tue400:00+4sw61097100 0.8 999928
03:00+5wsw6988100 1.2 10001069
06:00+5sw5893100 0.3 1002955
09:00+5sw5795100 0.5 1004994
12:00+6sw4894100 0.6 10061068
15:00+7sw4793100 0.9 1008827
18:00+7wsw4993100 0.4 1010867
21:00+7w3993100 1.3 1011536
5 october, wed
wed500:00+7w3996100 0.3 1013683
03:00+8w51193100 0.7 1014754
06:00+7w6119096 0.1 1016541
09:00+7w6128924 0.1 1018599
12:00+9w61085100 0.1 1020926
15:00+9w4987100 0.1 1021718
18:00+10w51087100 0.2 1021522
21:00+8sw3894100 0.2 1022206
6 october, thu
thu600:00+8sw4994100 0.0 1022194
03:00+8wsw4995100 0.0 1022208
06:00+8wsw3794100 0.0 1021145
09:00+10wsw488737 0.0 1021262
12:00+15wsw56675 0.0 1021534
15:00+16wsw57615 0.0 1020740
18:00+13wsw47795 0.0 1021142
21:00+11wsw4108954 0.0 1022197
7 october, fri
fri700:00+10w499472 0.0 1023183
03:00+11wnw5119437 0.0 1024339
06:00+9nw410955 0.0 1026292
09:00+10nw49880 0.0 1027325
12:00+14nw45680 0.0 1028643
15:00+15nw44590 0.0 1027815
18:00+12nw23770 0.0 102824
21:00+9nw11870 0.0 102810
8 october, sat
sat800:00+8ssw01872 0.0 102810
03:00+7s22890 0.0 102714
06:00+7s33925 0.0 102635
09:00+9s35862 0.0 1026162
12:00+14s46645 0.0 1024634
15:00+16ssw56545 0.0 1021928
18:00+12s367353 0.0 102086
21:00+9ssw488072 0.0 1021128